User: anonymous   Login
Location: Unspecified
(0.0000°N, 0.0000°E)
Time: 09:10:23
(UTC+00:00)
Language:

Explorer 7 - Orbit

View from above orbital plane
View from above orbital plane
View from above satellite
View from above satellite

Ground track
Ground track

The orbit data is extracted from the following two-line orbital elements,

1    22U 59009A   20093.90888536 +.00000308 +00000-0 +46006-4 0  9999
2    22 050.2837 096.5141 0139838 330.0440 029.2559 14.95080996459071
Epoch (UTC): 02 April 2020 21:48:47
Eccentricity: 0.0139838
inclination: 50.2837°
perigee height: 485 km
apogee height: 679 km
right ascension of ascending node: 96.5141°
argument of perigee: 330.0440°
revolutions per day: 14.95080996
mean anomaly at epoch: 29.2559°
orbit number at epoch: 45907

The dashed part of the orbit path shows where the satellite is in the earth's shadow,  

DLR